Find Starlink 11534

NORAD ID: 62555 Int'l Des: 2025-006 Owner: SPXS Country: US Constellation: starlink operational
LEOCIRCULAR

当前视图

正在加载3D地球...

About Starlink 11534

Starlink 11534 (NORAD 62555) is a starlink constellation satellite (v2 mini d2c) launched Jan 10, 2025 by SPXS of US. It operates in LEO, CIRCULAR orbit with a mass of 960.00 kg.

关于 Starlink 11534

正在加载描述...

即将过境

Passes for default location (London). Set your location on the main map for personalized predictions.

高度历史

Loading altitude history...

两行轨道根数

1 62555U 25006B 26169.26581470 .00065906 00000-0 51229-3 0 9991
2 62555 42.9985 253.3681 0001039 240.4875 119.5889 15.70875471 82425
Epoch: Jun 18, 2026 • Age: 17 hours

当前状态

高度 357.5 km
速度 7.70 km/s
星下点 31.24°N, 31.59°E
发射日期 Jan 10, 2025
运行时间 1.4 years
类型 internet

技术详情

分类 Payload
质量 960.00 kg
干质量 910.00 kg
总质量 960.00 kg
长度 0.30 m
直径 4.10 m
跨度 29.00 m
形状 Box + pan
制造商 SPXS
平台类型 Starlink V2MD
阶段状态 In Orbit
所有者/国家 SPXS/US

Most Searched